Location: Brantley
(31.5822°N, 86.2569°W)
Time: 03:17:47
(UTC+00:00)

Transit 2A Rocket - Pass Details

Date: 24 February 2026
Orbit: 583 x 900 km, 66.7° (Epoch: 8 March)

Event Time Altitude Azimuth Distance (km) Brightness Sun altitude
Rises 04:38:34 0° 348° (NNW) 3,292 - -61.2°
Reaches altitude 10° 04:41:34 10° 2° (N) 2,299 - -61.6°
Maximum altitude 04:45:41 23° 54° (NE) 1,514 - -62.2°
Drops below altitude 10° 04:49:29 10° 107° (ESE) 2,124 - -62.7°
Sets 04:52:08 0° 122° (ESE) 2,979 - -63.1°
